Location: Bear Valley Meadows
(40.9851°N, 123.0761°W)
Time: 16:24:06
(UTC+00:00)

Thor Agena Rocket - Pass Details

Date: 29 May 2024
Orbit: 758 x 804 km, 99.1° (Epoch: 18 June)

Event Time Altitude Azimuth Distance (km) Brightness Sun altitude
Rises 12:06:53 0° 13° (NNE) 3,303 7.6 -6.6°
Reaches altitude 10° 12:09:12 10° 12° (NNE) 2,374 6.8 -6.3°
Maximum altitude 12:14:28 83° 287° (WNW) 812 3.6 -5.5°
Drops below altitude 10° 12:19:44 10° 199° (SSW) 2,374 5.6 -4.7°
Sets 12:22:03 0° 198° (SSW) 3,302 6.3 -4.3°
